Date String (YYYY-MM-DD hh:mm:ss) UTC,Instrument flags,absolute air pressure of the measurement (hPa),sample flow rate (lpm),inlet stack bypass flow (lpm),air temperature of the measurement (°C),ambient temperature measured by the external sensor (°C),aerosol sample conditioner tube jacket temperature (°C),OPC LED temperature (°C),internal box temperature (°C),relative humidity of the measurement (%),span deviation,mass concentration of particles derived from Lorenz-Mie calculation of OPC scattering (μg/m³),mass concentration of particles derived from Lorenz-Mie calculation of OPC scattering (μg/m³),mass concentration of particles derived from Lorenz-Mie calculation of OPC scattering (μg/m³)
DateTimeUTC,F1_M11,P_M11,Q1_M11,Q2_M11,T1_M11,T2_M11,T3_M11,T4_M11,T5_M11,U1_M11,ZSPAN_M11,X2_M11,X0_M11,X1_M11
2024-04-09 07:00:00,SystemResetWarning,0830.5,5.01,000.00,023.2,022.4,000.0,031.8,025.0,015.0,0000.0,0001.54,0008.07,0000.92
2024-04-09 07:01:00,SystemResetWarning,0830.5,4.98,000.00,023.2,022.4,000.0,031.8,025.0,014.9,0000.0,0001.54,0008.44,0000.95
2024-04-09 07:02:00,SystemResetWarning,0830.5,4.99,000.00,023.2,022.4,000.0,031.8,025.0,014.8,0000.0,0001.59,0008.88,0000.96
2024-04-09 07:03:00,SystemResetWarning,0830.6,5.01,000.00,023.1,022.4,000.0,031.8,025.0,014.8,0000.0,0001.65,0009.08,0000.99
2024-04-09 07:04:00,SystemResetWarning,0830.5,5.00,000.00,023.1,022.4,000.0,031.8,025.0,014.8,0000.0,0001.76,0009.71,0001.03
2024-04-09 07:05:00,SystemResetWarning,0830.5,5.00,000.00,023.1,022.3,000.0,031.7,025.0,014.8,0000.0,0001.79,0009.73,0001.05
2024-04-09 07:06:00,SystemResetWarning,0830.6,5.00,000.00,023.1,022.3,000.0,031.7,024.9,014.8,0000.0,0001.80,0009.79,0001.08
2024-04-09 07:07:00,SystemResetWarning,0830.7,4.99,000.00,023.1,022.3,000.0,031.7,024.9,014.7,0000.0,0001.82,0009.28,0001.10
2024-04-09 07:08:00,SystemResetWarning,0830.6,5.00,000.00,023.1,022.3,000.0,031.7,024.9,014.6,0000.0,0001.91,0008.72,0001.13
2024-04-09 07:09:00,SystemResetWarning,0830.6,4.99,000.00,023.1,022.3,000.0,031.7,024.9,014.6,0000.0,0001.96,0008.21,0001.15
2024-04-09 07:10:00,SystemResetWarning,0830.6,5.01,000.00,023.1,022.3,000.0,031.7,024.9,014.6,0000.0,0002.02,0007.98,0001.18
2024-04-09 07:11:00,SystemResetWarning,0830.5,5.00,000.00,023.0,022.3,000.0,031.7,024.9,014.5,0000.0,0002.06,0007.88,0001.20
2024-04-09 07:12:00,SystemResetWarning,0830.4,5.00,000.00,023.0,022.2,000.0,031.7,024.9,014.4,0000.0,0002.13,0008.52,0001.23
2024-04-09 07:13:00,SystemResetWarning,0830.4,5.00,000.00,023.0,022.2,000.0,031.6,024.9,014.3,0000.0,0002.21,0008.10,0001.27
2024-04-09 07:14:00,SystemResetWarning,0830.5,5.00,000.00,023.0,022.2,000.0,031.6,024.9,014.2,0000.0,0002.28,0008.05,0001.32
2024-04-09 07:15:00,SystemResetWarning,0830.4,5.01,000.00,023.0,022.2,000.0,031.6,024.8,014.1,0000.0,0002.31,0007.58,0001.36
2024-04-09 07:16:00,SystemResetWarning,0830.5,5.01,000.00,023.0,022.2,000.0,031.6,024.8,014.1,0000.0,0002.37,0007.35,0001.39
2024-04-09 07:17:00,SystemResetWarning,0830.5,5.00,000.00,023.0,022.2,000.0,031.6,024.8,014.1,0000.0,0002.46,0007.80,0001.42
2024-04-09 07:18:00,SystemResetWarning,0830.5,5.00,000.00,023.0,022.2,000.0,031.6,024.8,014.2,0000.0,0002.52,0007.82,0001.46
2024-04-09 07:19:00,SystemResetWarning,0830.5,4.99,000.00,022.9,022.2,000.0,031.6,024.8,014.2,0000.0,0002.51,0008.18,0001.49
2024-04-09 07:20:00,SystemResetWarning,0830.4,4.99,000.00,022.9,022.1,000.0,031.6,024.8,014.2,0000.0,0002.47,0008.44,0001.50
2024-04-09 07:21:00,SystemResetWarning,0830.4,4.99,000.00,022.9,022.1,000.0,031.5,024.8,014.3,0000.0,0002.41,0008.55,0001.51
2024-04-09 07:22:00,SystemResetWarning,0830.4,5.00,000.00,022.9,022.1,000.0,031.5,024.8,014.4,0000.0,0002.42,0008.90,0001.52
2024-04-09 07:23:00,SystemResetWarning,0830.3,5.01,000.00,022.9,022.1,000.0,031.5,024.7,014.4,0000.0,0002.35,0007.93,0001.51
2024-04-09 07:24:00,SystemResetWarning,0830.3,5.00,000.00,022.9,022.1,000.0,031.5,024.7,014.3,0000.0,0002.34,0008.07,0001.50
2024-04-09 07:25:00,SystemResetWarning,0830.3,4.99,000.00,022.9,022.1,000.0,031.5,024.7,014.4,0000.0,0002.36,0008.72,0001.48
2024-04-09 07:26:00,SystemResetWarning,0830.3,4.99,000.00,022.8,022.1,000.0,031.5,024.7,014.4,0000.0,0002.34,0009.17,0001.46
2024-04-09 07:27:00,SystemResetWarning,0830.3,4.99,000.00,022.8,022.1,000.0,031.5,024.7,014.4,0000.0,0002.32,0009.20,0001.45
2024-04-09 07:28:00,SystemResetWarning,0830.3,5.01,000.00,022.8,022.0,000.0,031.5,024.7,014.3,0000.0,0002.26,0008.78,0001.44
2024-04-09 07:29:00,SystemResetWarning,0830.3,5.01,000.00,022.8,022.0,000.0,031.4,024.6,014.2,0000.0,0002.26,0008.40,0001.43
2024-04-09 07:30:00,SystemResetWarning,0830.3,5.00,000.00,022.8,022.0,000.0,031.4,024.6,014.0,0000.0,0002.27,0008.06,0001.43
2024-04-09 07:31:00,SystemResetWarning,0830.3,5.00,000.00,022.8,022.0,000.0,031.4,024.6,014.0,0000.0,0002.36,0008.31,0001.43
2024-04-09 07:32:00,SystemResetWarning,0830.2,4.99,000.00,022.8,022.0,000.0,031.4,024.6,014.2,0000.0,0002.43,0008.76,0001.46
2024-04-09 07:33:00,SystemResetWarning,0830.2,4.99,000.00,022.8,022.0,000.0,031.4,024.6,014.4,0000.0,0002.45,0009.18,0001.46
2024-04-09 07:34:00,SystemResetWarning,0830.2,5.00,000.00,022.8,022.0,000.0,031.4,024.6,014.5,0000.0,0002.48,0009.39,0001.47
2024-04-09 07:35:00,SystemResetWarning,0830.2,5.02,000.00,022.7,022.0,000.0,031.4,024.5,014.6,0000.0,0002.46,0010.08,0001.46
2024-04-09 07:36:00,SystemResetWarning,0830.2,5.00,000.00,022.7,021.9,000.0,031.3,024.5,014.7,0000.0,0002.38,0009.44,0001.45
2024-04-09 07:37:00,SystemResetWarning,0830.2,4.99,000.00,022.7,021.9,000.0,031.3,024.5,014.8,0000.0,0002.39,0008.90,0001.44
2024-04-09 07:38:00,SystemResetWarning,0830.2,4.99,000.00,022.7,021.9,000.0,031.3,024.5,014.9,0000.0,0002.40,0008.97,0001.43
2024-04-09 07:39:00,SystemResetWarning,0830.1,4.99,000.00,022.7,021.9,000.0,031.3,024.5,014.9,0000.0,0002.36,0009.01,0001.40
2024-04-09 07:40:00,SystemResetWarning,0830.1,5.01,000.00,022.7,021.9,000.0,031.3,024.5,015.0,0000.0,0002.29,0009.16,0001.37
2024-04-09 07:41:00,SystemResetWarning,0830.1,5.00,000.00,022.7,021.9,000.0,031.3,024.5,015.0,0000.0,0002.24,0010.22,0001.33
2024-04-09 07:42:00,SystemResetWarning,0830.1,5.01,000.00,022.7,021.9,000.0,031.3,024.5,014.9,0000.0,0002.14,0010.24,0001.30
2024-04-09 07:43:00,SystemResetWarning,0830.1,5.01,000.00,022.6,021.9,000.0,031.3,024.5,015.0,0000.0,0002.07,0009.59,0001.25
2024-04-09 07:44:00,SystemResetWarning,0830.1,5.00,000.00,022.6,021.9,000.0,031.2,024.4,015.1,0000.0,0002.01,0008.85,0001.21
2024-04-09 07:45:00,SystemResetWarning,0830.1,5.00,000.00,022.6,021.8,000.0,031.2,024.4,015.1,0000.0,0001.98,0009.01,0001.18
2024-04-09 07:46:00,SystemResetWarning,0830.1,4.99,000.00,022.6,021.8,000.0,031.2,024.4,015.0,0000.0,0002.01,0008.40,0001.15
2024-04-09 07:47:00,SystemResetWarning,0830.1,5.00,000.00,022.6,021.8,000.0,031.2,024.4,014.8,0000.0,0001.98,0008.63,0001.14
2024-04-09 07:48:00,SystemResetWarning,0830.1,5.00,000.00,022.6,021.8,000.0,031.2,024.4,014.6,0000.0,0001.98,0008.76,0001.14
2024-04-09 07:49:00,SystemResetWarning,0830.1,5.00,000.00,022.6,021.8,000.0,031.2,024.4,014.5,0000.0,0001.92,0008.72,0001.14
2024-04-09 07:50:00,SystemResetWarning,0830.1,5.00,000.00,022.6,021.8,000.0,031.2,024.4,014.6,0000.0,0001.94,0009.01,0001.17
2024-04-09 07:51:00,SystemResetWarning,0830.1,5.01,000.00,022.6,021.8,000.0,031.2,024.3,014.6,0000.0,0001.96,0008.77,0001.19
2024-04-09 07:52:00,SystemResetWarning,0830.1,5.00,000.00,022.5,021.8,000.0,031.1,024.3,014.6,0000.0,0001.95,0008.31,0001.20
2024-04-09 07:53:00,SystemResetWarning,0830.0,5.00,000.00,022.5,021.8,000.0,031.1,024.3,014.6,0000.0,0001.93,0007.99,0001.22
2024-04-09 07:54:00,SystemResetWarning,0830.0,5.00,000.00,022.5,021.7,000.0,031.1,024.3,014.6,0000.0,0001.95,0007.80,0001.24
2024-04-09 07:55:00,SystemResetWarning,0830.0,5.00,000.00,022.5,021.7,000.0,031.1,024.3,014.7,0000.0,0002.00,0007.93,0001.27
2024-04-09 07:56:00,SystemResetWarning,0830.0,5.00,000.00,022.5,021.7,000.0,031.1,024.3,014.5,0000.0,0002.06,0007.83,0001.31
2024-04-09 07:57:00,SystemResetWarning,0830.0,5.00,000.00,022.5,021.7,000.0,031.1,024.2,014.4,0000.0,0002.05,0007.65,0001.35
2024-04-09 07:58:00,SystemResetWarning,0830.0,5.00,000.00,022.4,021.7,000.0,031.1,024.2,014.4,0000.0,0002.09,0007.76,0001.36
2024-04-09 07:59:00,SystemResetWarning,0830.0,5.00,000.00,022.4,021.7,000.0,031.0,024.2,014.5,0000.0,0002.12,0008.03,0001.37
